Weather History for Jackson, WY

Change the Weather History Date:

Friday, July 12, 2013

  Actual Average Record
Temperature  
Mean Temperature 60 °F -  
Max Temperature 75 °F 78 °F 93 °F (2002)
Min Temperature 44 °F 41 °F 33 °F (1979)
Degree Days  
Heating Degree Days 6    
Growing Degree Days 10 (Base 50)    
Moisture  
Dew Point 47 °F    
Average Humidity 73    
Maximum Humidity 100    
Minimum Humidity 24    
Precipitation  
Precipitation 0.00 in - - ()
Sea Level Pressure  
Sea Level Pressure 30.15 in    
Wind  
Wind Speed 3 mph (SSE)    
Max Wind Speed 15 mph    
Max Gust Speed 21 mph    
Visibility 10 miles    
Events      
Averages and records for this station are not official NWS values.
T = Trace of Precipitation, MM = Missing Value Source: NWS Daily Summary

Daily Weather History Graph

Daily Weather History Graph

Search for Another Location

Airport:

Trip Planner

Search our weather history database for the weather conditions in past years. The results will help you decide how hot, cold, wet, or windy it might be!

Date:

Astronomy

Jul. 12, 2013 Rise Set
Actual Time 5:53 AM MDT 9:03 PM MDT
Civil Twilight 5:18 AM MDT 9:38 PM MDT
Nautical Twilight 4:33 AM MDT 10:23 PM MDT
Astronomical Twilight 3:38 AM MDT 11:17 PM MDT
Moon 10:23 AM MDT (7/12) 11:05 PM MDT (7/12)
Length of Visible Light 16h 20m
Length of Day
15h 10m
Waxing Crescent, 18% of the Moon is Illuminated
Jul 12
Waxing Crescent
Jul 15
First Quarter
Jul 22
Full
Jul 29
Last Quarter
Aug 6
New

Hourly Weather History & Observations

Time (MDT) Temp. Windchill Dew Point Humidity Pressure Visibility Wind Dir Wind Speed Gust Speed Precip Events Conditions
12:15 AM 55.4 °F - 51.8 °F 88% 30.16 in 10.0 mi ESE 3.5 mph - N/A   Clear
12:55 AM 53.6 °F - 53.6 °F 100% 30.16 in 10.0 mi SW 3.5 mph - N/A   Clear
1:15 AM 53.6 °F - 51.8 °F 94% 30.16 in 10.0 mi Calm Calm - N/A   Partly Cloudy
1:35 AM 53.6 °F - 53.6 °F 100% 30.15 in 10.0 mi Calm Calm - N/A   Partly Cloudy
1:55 AM 53.6 °F - 53.6 °F 100% 30.15 in 10.0 mi Calm Calm - N/A   Scattered Clouds
2:15 AM 53.6 °F - 53.6 °F 100% 30.16 in 10.0 mi Calm Calm - N/A   Partly Cloudy
2:35 AM 53.6 °F - 53.6 °F 100% 30.16 in 10.0 mi Calm Calm - N/A   Clear
2:55 AM 53.6 °F - 53.6 °F 100% 30.16 in 10.0 mi Calm Calm - N/A   Clear
3:16 AM 53.6 °F - 51.8 °F 94% 30.15 in 10.0 mi Calm Calm - N/A   Partly Cloudy
3:35 AM 51.8 °F - 50.0 °F 94% 30.15 in 10.0 mi East 5.8 mph - N/A   Clear
3:55 AM 51.8 °F - 51.8 °F 100% 30.14 in 10.0 mi East 3.5 mph - N/A   Clear
4:15 AM 51.8 °F - 51.8 °F 100% 30.15 in 10.0 mi Calm Calm - N/A   Clear
4:35 AM 51.8 °F - 51.8 °F 100% 30.15 in 10.0 mi Calm Calm - N/A   Clear
4:55 AM 51.8 °F - 51.8 °F 100% 30.15 in 10.0 mi Calm Calm - N/A   Clear
5:15 AM 51.8 °F - 51.8 °F 100% 30.16 in 10.0 mi Calm Calm - N/A   Clear
5:35 AM 48.2 °F - 48.2 °F 100% 30.17 in 10.0 mi ENE 3.5 mph - N/A   Partly Cloudy
5:55 AM 50.0 °F - 48.2 °F 94% 30.17 in 9.0 mi North 4.6 mph - N/A   Partly Cloudy
6:15 AM 44.6 °F 40.2 °F 44.6 °F 100% 30.18 in 8.0 mi North 8.1 mph - N/A   Clear
6:35 AM 48.2 °F - 48.2 °F 100% 30.17 in 9.0 mi North 5.8 mph - N/A   Partly Cloudy
6:51 AM 48.2 °F - 46.4 °F 93% 30.17 in 10.0 mi NNE 6.9 mph - N/A   Partly Cloudy
7:51 AM 51.8 °F - 51.8 °F 100% 30.18 in 10.0 mi Calm Calm - N/A   Partly Cloudy
8:52 AM 55.4 °F - 51.8 °F 88% 30.18 in 10.0 mi Calm Calm - N/A   Partly Cloudy
9:52 AM 60.8 °F - 53.6 °F 77% 30.18 in 10.0 mi South 3.5 mph - N/A   Clear
10:51 AM 62.6 °F - 53.6 °F 72% 30.17 in 10.0 mi Calm Calm - N/A   Clear
12:51 PM 73.4 °F - 42.8 °F 33% 30.15 in 10.0 mi SSE 5.8 mph - N/A   Scattered Clouds
1:51 PM 73.4 °F - 41.0 °F 31% 30.14 in 10.0 mi SW 9.2 mph - N/A   Scattered Clouds
2:51 PM 75.2 °F - 37.4 °F 25% 30.12 in 10.0 mi South 15.0 mph 20.7 mph N/A   Scattered Clouds
3:51 PM 75.2 °F - 35.6 °F 24% 30.13 in 10.0 mi South 6.9 mph - N/A   Mostly Cloudy
4:51 PM 73.4 °F - 39.2 °F 29% 30.12 in 10.0 mi SW 12.7 mph - N/A   Scattered Clouds
5:51 PM 73.4 °F - 37.4 °F 27% 30.12 in 10.0 mi West 10.4 mph - N/A   Scattered Clouds
6:51 PM 71.6 °F - 37.4 °F 29% 30.12 in 10.0 mi SW 11.5 mph - N/A   Mostly Cloudy
7:51 PM 71.6 °F - 39.2 °F 31% 30.13 in 10.0 mi SSW 8.1 mph - N/A   Scattered Clouds
8:51 PM 66.2 °F - 42.8 °F 43% 30.13 in 10.0 mi South 4.6 mph - N/A   Clear
9:15 PM 64.4 °F - 42.8 °F 45% 30.14 in 10.0 mi Calm Calm - N/A   Partly Cloudy
9:35 PM 62.6 °F - 42.8 °F 48% 30.14 in 10.0 mi SSW 6.9 mph - N/A   Clear
10:15 PM 60.8 °F - 42.8 °F 52% 30.15 in 10.0 mi Calm Calm - N/A   Clear
10:35 PM 59.0 °F - 42.8 °F 55% 30.15 in 10.0 mi NE 3.5 mph - N/A   Clear
10:55 PM 62.6 °F - 41.0 °F 45% 30.15 in 10.0 mi Calm Calm - N/A   Clear
11:15 PM 62.6 °F - 41.0 °F 45% 30.15 in 10.0 mi East 5.8 mph - N/A   Clear
11:35 PM 53.6 °F - 41.0 °F 62% 30.16 in 10.0 mi Calm Calm - N/A   Clear
11:55 PM 53.6 °F - 42.8 °F 67% 30.16 in 10.0 mi East 4.6 mph - N/A   Clear